Wilton, MN

10:30 AM CDT on September 30, 2016 (GMT -0500)
Bemidji-Beltrami County

Weather History for KBJI - February, 2014

Change the Weather History Date:

Tuesday, February 25, 2014

  Actual Average Record
Temperature  
Mean Temperature -9 °F -  
Max Temperature -2 °F 26 °F 55 °F (1958)
Min Temperature -16 °F 0 °F -40 °F (1950)
Degree Days  
Heating Degree Days 74    
Moisture  
Dew Point -17 °F    
Average Humidity 72    
Maximum Humidity 81    
Minimum Humidity 57    
Precipitation  
Precipitation 0.00 in - - ()
Sea Level Pressure  
Sea Level Pressure 30.22 in    
Wind  
Wind Speed 11 mph (West)    
Max Wind Speed 25 mph    
Max Gust Speed 29 mph    
Visibility 10 miles    
Events Snow    
Averages and records for this station are not official NWS values.
T = Trace of Precipitation, MM = Missing Value Source: NWS Daily Summary

Daily Weather History Graph

Daily Weather History Graph

Search for Another Location

Airport or City:

Trip Planner

Search our weather history database for the weather conditions in past years. The results will help you decide how hot, cold, wet, or windy it might be!

Date:

Astronomy

Feb. 25, 2014 Rise Set
Actual Time 7:07 AM CST 5:58 PM CST
Civil Twilight 6:36 AM CST 6:29 PM CST
Nautical Twilight 6:00 AM CST 7:05 PM CST
Astronomical Twilight 5:25 AM CST 7:41 PM CST
Moon 4:15 AM CST (2/25) 1:54 PM CST (2/25)
Length of Visible Light 11h 53m
Length of Day
10h 51m
Waning Crescent, 18% of the Moon is Illuminated
Feb 25
Waning Crescent
Mar 1
New
Mar 8
First Quarter
Mar 16
Full
Mar 23
Last Quarter

Hourly Weather History & Observations

Time (CST) Temp. Windchill Dew Point Humidity Pressure Visibility Wind Dir Wind Speed Gust Speed Precip Events Conditions
12:09 AM -11.9 °F -28.7 °F -17.0 °F 78% 30.22 in 10.0 mi West 8.1 mph - N/A   Clear
12:29 AM -11.6 °F -29.5 °F -15.9 °F 81% 30.21 in 10.0 mi West 9.2 mph - N/A   Clear
12:49 AM -11.2 °F -29.0 °F -15.7 °F 80% 30.22 in 10.0 mi West 9.2 mph - N/A   Clear
1:09 AM -11.0 °F -28.8 °F -15.5 °F 80% 30.21 in 10.0 mi West 9.2 mph - N/A   Clear
1:29 AM -11.6 °F -28.3 °F -16.1 °F 80% 30.20 in 10.0 mi West 8.1 mph - N/A   Clear
1:50 AM -12.8 °F -29.8 °F -17.3 °F 80% 30.20 in 10.0 mi West 8.1 mph - N/A Snow Light Snow
2:09 AM -12.1 °F -30.1 °F -17.0 °F 79% 30.20 in 10.0 mi West 9.2 mph - N/A Snow Light Snow
2:29 AM -13.9 °F -29.7 °F -18.4 °F 80% 30.19 in 10.0 mi West 6.9 mph - N/A Snow Light Snow
2:50 AM -11.9 °F -27.3 °F -16.6 °F 80% 30.19 in 10.0 mi West 6.9 mph - N/A   Clear
3:10 AM -13.2 °F -28.8 °F -18.2 °F 78% 30.18 in 10.0 mi West 6.9 mph - N/A   Clear
3:29 AM -13.2 °F -28.8 °F -17.9 °F 80% 30.18 in 10.0 mi West 6.9 mph - N/A   Clear
3:49 AM -14.1 °F -31.3 °F -18.4 °F 81% 30.17 in 10.0 mi West 8.1 mph - N/A   Clear
4:09 AM -14.6 °F -30.6 °F -19.5 °F 79% 30.17 in 10.0 mi West 6.9 mph - N/A   Clear
4:29 AM -15.2 °F -33.9 °F -20.0 °F 79% 30.17 in 10.0 mi West 9.2 mph - N/A   Clear
4:50 AM -15.7 °F -34.6 °F -20.6 °F 79% 30.17 in 10.0 mi West 9.2 mph - N/A   Clear
5:10 AM -15.0 °F -33.7 °F -19.7 °F 79% 30.17 in 10.0 mi West 9.2 mph - N/A   Clear
5:29 AM -15.9 °F -33.5 °F -20.7 °F 79% 30.17 in 10.0 mi West 8.1 mph - N/A   Clear
5:49 AM -15.9 °F -33.5 °F -20.7 °F 79% 30.17 in 10.0 mi West 8.1 mph - N/A   Clear
6:10 AM -16.2 °F -34.0 °F -21.3 °F 78% 30.17 in 10.0 mi West 8.1 mph - N/A   Clear
6:29 AM -16.8 °F -33.2 °F -21.8 °F 78% 30.17 in 10.0 mi West 6.9 mph - N/A   Clear
6:49 AM -15.7 °F -31.9 °F -20.6 °F 79% 30.17 in 10.0 mi West 6.9 mph - N/A   Clear
7:10 AM -15.9 °F -32.1 °F -21.1 °F 77% 30.17 in 10.0 mi West 6.9 mph - N/A   Clear
7:29 AM -16.6 °F -31.3 °F -21.5 °F 79% 30.17 in 10.0 mi West 5.8 mph - N/A   Scattered Clouds
7:49 AM -16.6 °F -34.4 °F -21.6 °F 78% 30.18 in 10.0 mi West 8.1 mph - N/A   Mostly Cloudy
8:10 AM -16.1 °F -33.7 °F -21.1 °F 78% 30.19 in 10.0 mi West 8.1 mph - N/A   Scattered Clouds
8:29 AM -13.5 °F -30.7 °F -18.9 °F 77% 30.19 in 10.0 mi West 8.1 mph - N/A   Mostly Cloudy
8:49 AM -13.0 °F -27.0 °F -18.4 °F 77% 30.19 in 10.0 mi West 5.8 mph - N/A   Overcast
9:10 AM -11.6 °F -28.3 °F -17.5 °F 75% 30.20 in 5.0 mi West 8.1 mph - N/A   Haze
9:29 AM -10.3 °F -29.0 °F -16.1 °F 76% 30.20 in 7.0 mi WNW 10.4 mph - N/A   Overcast
9:49 AM -8.9 °F -26.2 °F -15.7 °F 72% 30.20 in 10.0 mi West 9.2 mph - N/A   Mostly Cloudy
10:10 AM -8.0 °F -28.0 °F -15.0 °F 71% 30.21 in 10.0 mi WNW 12.7 mph - N/A   Scattered Clouds
10:29 AM -6.7 °F -24.5 °F -14.8 °F 68% 30.21 in 7.0 mi WNW 10.4 mph - N/A   Mostly Cloudy
10:49 AM -5.6 °F -23.2 °F -13.5 °F 69% 30.22 in 7.0 mi WNW 10.4 mph - N/A   Mostly Cloudy
11:10 AM -4.4 °F -23.4 °F -13.2 °F 66% 30.22 in 10.0 mi WNW 12.7 mph - N/A   Mostly Cloudy
11:29 AM -3.6 °F -21.7 °F -12.1 °F 67% 30.22 in 10.0 mi WNW 11.5 mph - N/A   Scattered Clouds
11:49 AM -2.6 °F -23.3 °F -11.4 °F 66% 30.23 in 10.0 mi NW 16.1 mph 20.7 mph N/A   Clear
12:09 PM -2.2 °F -23.5 °F -11.2 °F 66% 30.22 in 10.0 mi WNW 17.3 mph 23.0 mph N/A   Clear
12:29 PM -2.2 °F -22.2 °F -12.3 °F 62% 30.22 in 10.0 mi WNW 15.0 mph 19.6 mph N/A   Clear
12:50 PM -2.4 °F -24.3 °F -13.0 °F 61% 30.22 in 10.0 mi WNW 18.4 mph 24.2 mph N/A   Clear
1:09 PM -2.6 °F -24.6 °F -13.0 °F 61% 30.23 in 10.0 mi WNW 18.4 mph - N/A   Clear
1:29 PM -2.6 °F -24.6 °F -12.8 °F 62% 30.23 in 10.0 mi WNW 18.4 mph - N/A   Clear
1:49 PM -2.4 °F -24.3 °F -12.3 °F 63% 30.22 in 10.0 mi WNW 18.4 mph 25.3 mph N/A   Clear
2:09 PM -2.2 °F -24.7 °F -12.5 °F 62% 30.22 in 10.0 mi WNW 19.6 mph 25.3 mph N/A   Scattered Clouds
2:29 PM -2.2 °F -25.7 °F -13.0 °F 60% 30.23 in 10.0 mi WNW 21.9 mph - N/A   Clear
2:50 PM -2.7 °F -26.4 °F -13.9 °F 59% 30.24 in 10.0 mi WNW 21.9 mph 25.3 mph N/A   Clear
3:09 PM -3.1 °F -26.9 °F -14.1 °F 59% 30.24 in 10.0 mi NW 21.9 mph 26.5 mph N/A   Clear
3:29 PM -3.1 °F -27.4 °F -14.6 °F 58% 30.25 in 10.0 mi WNW 23.0 mph - N/A   Clear
3:50 PM -4.0 °F -28.6 °F -15.7 °F 57% 30.25 in 10.0 mi NW 23.0 mph 28.8 mph N/A   Clear
4:09 PM -4.4 °F -30.0 °F -14.8 °F 61% 30.25 in 10.0 mi WNW 25.3 mph - N/A   Clear
4:29 PM -4.9 °F -28.8 °F -14.8 °F 62% 30.26 in 10.0 mi WNW 20.7 mph - N/A   Scattered Clouds
4:49 PM -5.8 °F -31.0 °F -14.8 °F 65% 30.26 in 10.0 mi WNW 23.0 mph 27.6 mph N/A   Overcast
5:09 PM -6.7 °F -31.1 °F -15.5 °F 66% 30.27 in 10.0 mi WNW 20.7 mph 24.2 mph N/A   Mostly Cloudy
5:29 PM -7.6 °F -31.7 °F -15.9 °F 67% 30.27 in 10.0 mi WNW 19.6 mph 24.2 mph N/A   Mostly Cloudy
5:50 PM -8.9 °F -30.7 °F -16.8 °F 68% 30.27 in 10.0 mi WNW 15.0 mph 21.9 mph N/A   Scattered Clouds
6:09 PM -9.8 °F -33.3 °F -18.2 °F 66% 30.27 in 10.0 mi WNW 17.3 mph 21.9 mph N/A   Scattered Clouds
6:29 PM -10.5 °F -32.8 °F -18.6 °F 67% 30.28 in 10.0 mi WNW 15.0 mph 20.7 mph N/A   Clear
6:49 PM -10.8 °F -34.0 °F -18.8 °F 68% 30.28 in 10.0 mi WNW 16.1 mph 19.6 mph N/A   Clear
7:09 PM -11.4 °F -32.3 °F -19.1 °F 69% 30.28 in 10.0 mi West 12.7 mph - N/A   Clear
7:29 PM -11.7 °F -31.8 °F -18.9 °F 70% 30.27 in 10.0 mi West 11.5 mph - N/A   Clear
7:50 PM -12.1 °F -34.1 °F -19.3 °F 70% 30.26 in 10.0 mi West 13.8 mph - N/A   Clear
8:10 PM -12.1 °F -32.3 °F -19.3 °F 70% 30.26 in 10.0 mi West 11.5 mph - N/A   Clear
8:29 PM -12.3 °F -33.4 °F -19.3 °F 71% 30.26 in 10.0 mi West 12.7 mph - N/A   Clear
8:49 PM -12.5 °F -31.7 °F -19.5 °F 71% 30.25 in 10.0 mi West 10.4 mph - N/A   Clear
9:09 PM -13.2 °F -31.5 °F -20.2 °F 71% 30.25 in 10.0 mi West 9.2 mph - N/A   Clear
9:29 PM -13.5 °F -31.9 °F -20.4 °F 71% 30.24 in 10.0 mi West 9.2 mph - N/A   Clear
9:50 PM -14.8 °F -32.2 °F -21.1 °F 73% 30.22 in 10.0 mi West 8.1 mph - N/A   Clear
10:10 PM -15.2 °F -32.6 °F -21.1 °F 75% 30.22 in 10.0 mi West 8.1 mph - N/A   Clear
10:29 PM -15.2 °F -29.5 °F -20.4 °F 77% 30.21 in 10.0 mi West 5.8 mph - N/A   Clear
10:49 PM -14.4 °F -28.7 °F -19.3 °F 79% 30.20 in 10.0 mi WSW 5.8 mph - N/A   Clear
11:10 PM -14.1 °F -31.3 °F -18.9 °F 79% 30.19 in 10.0 mi WSW 8.1 mph - N/A   Clear
11:29 PM -13.9 °F -31.1 °F -18.9 °F 78% 30.18 in 10.0 mi WSW 8.1 mph - N/A   Clear
11:49 PM -13.5 °F -33.0 °F -18.9 °F 77% 30.17 in 10.0 mi WSW 10.4 mph - N/A   Clear